User: anonymous   Login
Location: Betra
(48.4113°N, 8.6634°E)
Time: 06:47:27
(UTC+00:00)
Language:

NPP - Orbit

View from above orbital plane
View from above orbital plane
View from above satellite
View from above satellite

Ground track
Ground track

The orbit data is extracted from the following two-line orbital elements,

1 37849U 11061A   25192.82377093  .00000024  00000-0  32229-4 0  9996
2 37849  98.7580 131.7370 0000975 167.2031 192.9170 14.19545026710142
Epoch (UTC): 11 July 2025 19:46:13
Eccentricity: 0.0000975
inclination: 98.7580°
perigee height: 826 km
apogee height: 827 km
right ascension of ascending node: 131.7370°
argument of perigee: 167.2031°
revolutions per day: 14.19545026
mean anomaly at epoch: 192.9170°
orbit number at epoch: 71014

The dashed part of the orbit path shows where the satellite is in the earth's shadow,  

DLR